Fayetteville, Georgia, United States (30214)
Lat: 33.45N, Lon: 84.45W
Wx Zone: GAZ054
Local Info
Past Weather Observations for Today

NOTE: This archive is for the closest National Weather Service station to Fayetteville. Information may differ from the station used for current weather conditions.

Click here for Long-term Archive

Time Weather Temperature Dewpoint Humidity Pressure Winds Precip Visibility
19:53
Partly Cloudy
64°F / 18°C 57°F / 14°C 78% 30.09 in
(1019 mb)
Calm - 10SM
18:53
Partly Cloudy
72°F / 22°C 59°F / 15°C 65% 30.06 in
(1018 mb)
Calm - 10SM
17:53
Clear
79°F / 26°C 52°F / 11°C 39% 30.04 in
(1017 mb)
SW 3.5 mph
(SW 6 kph)
- 10SM
16:53
Partly Cloudy
81°F / 27°C 52°F / 11°C 37% 30.04 in
(1017 mb)
NW 6.9 mph
(NW 11 kph)
- 10SM
15:53
Partly Cloudy
79°F / 26°C 54°F / 12°C 42% 30.04 in
(1017 mb)
SW 5.8 mph
(SW 9 kph)
- 9SM
14:53
Partly Cloudy
79°F / 26°C 52°F / 11°C 39% 30.04 in
(1017 mb)
W 5.8 mph
(W 9 kph)
- 10SM
13:53
Partly Cloudy
79°F / 26°C 55°F / 13°C 45% 30.06 in
(1018 mb)
Variable 6.9 mph
(Variable 11 kph)
- 10SM
12:53
Clear
75°F / 24°C 55°F / 13°C 50% 30.06 in
(1018 mb)
NNW 5.8 mph
(NNW 9 kph)
- 10SM
11:53
Clear
73°F / 23°C 57°F / 14°C 57% 30.09 in
(1019 mb)
NNE 4.6 mph
(NNE 7 kph)
- 10SM
10:53
Clear
70°F / 21°C 57°F / 14°C 64% 30.09 in
(1019 mb)
Variable 3.5 mph
(Variable 6 kph)
- 10SM
09:53
Clear
66°F / 19°C 57°F / 14°C 73% 30.09 in
(1019 mb)
N 5.8 mph
(N 9 kph)
- 10SM
08:53
Clear
63°F / 17°C 57°F / 14°C 83% 30.06 in
(1018 mb)
NW 4.6 mph
(NW 7 kph)
- 10SM
07:53
Clear
57°F / 14°C 55°F / 13°C 94% 30.06 in
(1018 mb)
WNW 4.6 mph
(WNW 7 kph)
- 10SM
07:15
Clear
Fog And Mist
55°F / 13°C 55°F / 13°C 100% 30.06 in
(1018 mb)
Calm - 3SM
07:05
Clear
Fog And Mist
55°F / 13°C 54°F / 12°C 94% 30.06 in
(1018 mb)
WNW 3.5 mph
(WNW 6 kph)
- 1 3/4SM
06:53
Clear
55°F / 13°C 55°F / 13°C 100% 30.04 in
(1017 mb)
Calm - 8SM
05:53
Mostly Cloudy
57°F / 14°C 55°F / 13°C 94% 30.04 in
(1017 mb)
NNW 4.6 mph
(NNW 7 kph)
0.01 in
(0.25 mm)
10SM
04:53
Overcast
Light Rain
57°F / 14°C 55°F / 13°C 94% 30.01 in
(1016 mb)
Calm 0.05 in
(1.27 mm)
4SM
03:53
Overcast
Light Rain
57°F / 14°C 55°F / 13°C 94% 30.01 in
(1016 mb)
Variable 3.5 mph
(Variable 6 kph)
0.03 in
(0.76 mm)
6SM
03:08
Overcast
Light Rain
57°F / 14°C 55°F / 13°C 94% 30.01 in
(1016 mb)
SE 4.6 mph
(SE 7 kph)
0.03 in
(0.76 mm)
5SM
02:53
Overcast
Rain
57°F / 14°C 55°F / 13°C 94% 30.01 in
(1016 mb)
S 3.5 mph
(S 6 kph)
0.11 in
(2.79 mm)
2SM
02:50
Overcast
Rain
57°F / 14°C 55°F / 13°C 94% 30.04 in
(1017 mb)
Variable 3.5 mph
(Variable 6 kph)
0.10 in
(2.54 mm)
2 1/2SM
02:42
Overcast
Rain
57°F / 14°C 55°F / 13°C 94% 30.04 in
(1017 mb)
SSW 4.6 mph
(SSW 7 kph)
0.08 in
(2.03 mm)
3SM
02:27
Overcast
Thunder Storms
57°F / 14°C 55°F / 13°C 94% 30.01 in
(1016 mb)
Calm 0.05 in
(1.27 mm)
6SM
02:15
Overcast
Light Rain
57°F / 14°C 55°F / 13°C 94% 30.04 in
(1017 mb)
W 6.9 mph
(W 11 kph)
0.04 in
(1.02 mm)
5SM
02:03
Overcast
Heavy Rain
57°F / 14°C 55°F / 13°C 94% 30.04 in
(1017 mb)
NW 6.9 mph
(NW 11 kph)
0.03 in
(0.76 mm)
2 1/2SM
01:53
Overcast
Light Rain
57°F / 14°C 55°F / 13°C 94% 30.04 in
(1017 mb)
NNW 6.9 mph
(NNW 11 kph)
0.15 in
(3.81 mm)
4SM
01:48
Overcast
Thunder Storms
57°F / 14°C 55°F / 13°C 94% 30.04 in
(1017 mb)
NW 8.1 mph
(NW 13 kph)
0.11 in
(2.79 mm)
7SM
01:33
Overcast
Thunder Storms
59°F / 15°C 55°F / 13°C 88% 30.04 in
(1017 mb)
NW 8.1 mph
(NW 13 kph)
0.08 in
(2.03 mm)
2 1/2SM
01:12
Overcast
Thunder Storms
57°F / 14°C 57°F / 14°C 100% 30.01 in
(1016 mb)
Calm 0.00 in
(0.00 mm)
5SM
01:02
Overcast
Fog And Mist
57°F / 14°C 57°F / 14°C 100% 30.01 in
(1016 mb)
Calm - 2 1/2SM
00:53
Overcast
Fog And Mist
57°F / 14°C 57°F / 14°C 100% 30.01 in
(1016 mb)
Calm - 4SM
00:40
Overcast
Fog And Mist
59°F / 15°C 57°F / 14°C 94% 30.01 in
(1016 mb)
NNE 8.1 mph
(NNE 13 kph)
- 6SM
00:25
Overcast
Fog And Mist
57°F / 14°C 57°F / 14°C 100% 30.01 in
(1016 mb)
Calm - 2SM
Time Weather Temperature Dewpoint Humidity Pressure Winds Precip Visibility


Weather for websites

WeatherForYou.com, LLC is not responsible for any damages or problems caused by this service. Current weather conditions are obtained from the closest station including government and personal stations which may have varying degrees of accuracy. Weather forecasts are derived from the NOAA NDFD. Like all things, this site belongs to Jesus Christ... He just trusts me to maintain it. If you have any questions or comments email webmaster@weatherforyou.com

Copyright © 2015, WeatherForYou.com LLC. All rights reserved.